This is the latest recevied weather packets stored in our database for station/object IW3HBX-3. If no packets are shown the sender has not sent any weather packets the latest 10 day(s).
| Time | Temp. | Humidity | Pressure | Rain* | Wind** | Luminosity | Snow |
|---|---|---|---|---|---|---|---|
| 1777718398 | 23.33° C | 35% | 1024.9 hPa | 0 mm | - | 819 W/m² | - |
| 1777718099 | 22.78° C | 35% | 1024.9 hPa | 0 mm | - | 821 W/m² | - |
| 1777717799 | 22.22° C | 35% | 1025 hPa | 0 mm | - | 813 W/m² | - |
| 1777717499 | 22.22° C | 35% | 1025 hPa | 0 mm | - | 808 W/m² | - |
| 1777717199 | 22.78° C | 35% | 1025.2 hPa | 0 mm | - | 801 W/m² | - |
| 1777716900 | 22.78° C | 36% | 1025.2 hPa | 0 mm | - | 793 W/m² | - |
| 1777716600 | 22.22° C | 36% | 1025.2 hPa | 0 mm | - | 785 W/m² | - |
| 1777716300 | 21.67° C | 37% | 1025.3 hPa | 0 mm | - | 774 W/m² | - |
| 1777716000 | 21.67° C | 37% | 1025.4 hPa | 0 mm | - | 767 W/m² | - |
| 1777715700 | 22.22° C | 37% | 1025.5 hPa | 0 mm | - | 759 W/m² | - |
| 1777715401 | 22.22° C | 37% | 1025.5 hPa | 0 mm | - | 748 W/m² | - |
| 1777715101 | 22.22° C | 37% | 1025.5 hPa | 0 mm | - | 735 W/m² | - |
| 1777714501 | 22.78° C | 38% | 1025.6 hPa | 0 mm | - | 729 W/m² | - |
| 1777714202 | 21.67° C | 40% | 1025.6 hPa | 0 mm | - | 722 W/m² | - |
| 1777713902 | 21.67° C | 38% | 1025.7 hPa | 0 mm | - | 718 W/m² | - |
| 1777713602 | 21.11° C | 40% | 1025.7 hPa | 0 mm | - | 707 W/m² | - |
| 1777713302 | 21.11° C | 39% | 1025.7 hPa | 0 mm | - | 695 W/m² | - |
| 1777713003 | 21.11° C | 39% | 1025.7 hPa | 0 mm | - | 692 W/m² | - |
| 1777712703 | 20.56° C | 40% | 1025.8 hPa | 0 mm | - | 683 W/m² | - |
| 1777712403 | 22.22° C | 38% | 1025.8 hPa | 0 mm | - | 677 W/m² | - |
| 1777712103 | 21.67° C | 40% | 1025.8 hPa | 0 mm | - | 665 W/m² | - |
| 1777711804 | 21.67° C | 41% | 1025.9 hPa | 0 mm | - | 655 W/m² | - |
| 1777711504 | 21.11° C | 40% | 1025.9 hPa | 0 mm | - | 650 W/m² | - |
| 1777711204 | 20.56° C | 41% | 1025.9 hPa | 0 mm | - | 635 W/m² | - |
| 1777710904 | 21.11° C | 41% | 1025.9 hPa | 0 mm | - | 623 W/m² | - |
* Rain latest hour (hover to see other rain measurements)
** Current wind speed in m/s (hover to see current wind gust speed)